GW4193 Weather Reports


time (UTC)temp
C
wind
direction
speed
KPH
gust
KPH
rain 1hr
cm
rain 24hr
cm
rain mn
cm
humidity
%
barometer
mb
20260505073015 17 212 4.8 8.0 0.00 0.00 0.00 59 1011.1
20260505071516 17 204 3.2 8.0 0.00 0.00 0.00 59 1011.0
20260505070021 17 201 3.2 9.7 0.00 0.00 0.00 58 1011.2
20260505064504 17 205 4.8 9.7 0.00 0.00 0.00 58 1011.1
20260505063009 18 204 4.8 9.7 0.00 0.00 0.00 57 1011.2
20260505061525 18 186 3.2 9.7 0.00 0.00 0.00 57 1011.2
20260505060023 18 202 3.2 8.0 0.00 0.00 0.00 56 1011.4
20260505054525 18 216 4.8 8.0 0.00 0.00 0.00 55 1011.3
20260505053007 18 206 4.8 8.0 0.00 0.00 0.00 55 1011.3
20260505051512 18 205 3.2 6.4 0.00 0.00 0.00 54 1011.2
20260505041519 18 211 4.8 9.7 0.00 0.00 0.00 52 1010.5
20260505040015 18 205 4.8 6.4 0.00 0.00 0.00 52 1010.5
20260505034522 19 204 1.6 6.4 0.00 0.00 0.00 51 1010.4
20260505033024 19 204 1.6 6.4 0.00 0.00 0.00 51 1010.3
20260505031527 19 204 1.6 6.4 0.00 0.00 0.00 51 1010.2
20260505030012 19 204 3.2 4.8 0.00 0.00 0.00 51 1010.1
20260505024534 19 203 0.0 4.8 0.00 0.00 0.00 50 1010.1
20260505023020 20 203 1.6 4.8 0.00 0.00 0.00 50 1010.2
20260505021524 20 203 1.6 6.4 0.00 0.00 0.00 49 1009.9
20260505020028 20 200 4.8 8.0 0.00 0.00 0.00 50 1009.8
20260505014515 20 200 1.6 6.4 0.00 0.00 0.00 50 1009.8
20260505013011 20 200 3.2 8.0 0.00 0.00 0.00 50 1009.8
20260505011503 20 200 3.2 6.4 0.00 0.00 0.00 51 1009.8
20260505010008 20 191 1.6 4.8 0.00 0.00 0.00 50 1009.7
20260505004515 21 191 0.0 4.8 0.00 0.00 0.00 49 1009.7
20260505003016 21 200 1.6 4.8 0.00 0.00 0.00 49 1009.6
20260505001503 21 300 1.6 4.8 0.00 0.00 0.00 49 1009.7
20260505000005 22 208 1.6 6.4 0.00 0.00 0.00 48 1009.7
20260504234508 22 202 4.8 11.3 0.00 0.00 0.00 47 1009.7
20260504233028 22 212 3.2 8.0 0.00 0.00 0.00 46 1009.7
20260504231527 23 196 4.8 9.7 0.00 0.00 0.00 45 1009.7
20260504230004 23 215 6.4 14.5 0.00 0.00 0.00 45 1009.8
20260504224514 23 204 3.2 17.7 0.00 0.00 0.00 43 1009.9
20260504223012 23 132 4.8 16.1 0.00 0.00 0.00 43 1010.1
20260504221520 23 211 3.2 8.0 0.00 0.00 0.00 44 1010.2
20260504220022 23 193 4.8 16.1 0.00 0.00 0.00 43 1010.0
20260504214503 23 200 4.8 12.9 0.00 0.00 0.00 44 1010.0
20260504213012 24 326 8.0 17.7 0.00 0.00 0.00 44 1010.3
20260504211514 24 177 3.2 16.1 0.00 0.00 0.00 43 1010.1
20260504210020 24 262 8.0 17.7 0.00 0.00 0.00 42 1010.2
20260504204523 23 127 6.4 16.1 0.00 0.00 0.00 45 1010.2
20260504203018 23 219 6.4 14.5 0.00 0.00 0.00 45 1010.4
20260504201529 23 203 8.0 19.3 0.00 0.00 0.00 44 1010.7
20260504200026 23 240 4.8 11.3 0.00 0.00 0.00 49 1010.7
20260504194533 22 134 4.8 12.9 0.00 0.00 0.00 51 1011.0
20260504193023 21 233 1.6 3.2 0.00 0.00 0.00 58 1011.2
20260504191507 19 236 1.6 4.8 0.00 0.00 0.00 61 1011.5
20260504190014 19 129 0.0 4.8 0.00 0.00 0.00 63 1011.8
20260504184518 18 227 0.0 6.4 0.00 0.00 0.00 62 1012.1
20260504183024 17 244 0.0 9.7 0.00 0.00 0.00 65 1012.4
20260504181508 17 259 4.8 11.3 0.00 0.00 0.00 64 1012.4
20260504180015 17 245 4.8 20.9 0.00 0.00 0.00 61 1012.3
20260504174516 17 221 4.8 20.9 0.00 0.00 0.00 60 1012.1
20260504173021 18 210 9.7 19.3 0.00 0.00 0.00 58 1012.4
20260504171527 18 207 4.8 17.7 0.00 0.00 0.00 58 1012.1
20260504081506 10 205 4.8 9.7 0.00 0.00 0.00 56 1014.2